Delta Virtual Airport Information Service

Dubai International Airport

ICAO: OMDB Country: United Arab Emirates
Latitude: 25.2528 Longitude: 55.3644
Latest Arrival : UAE140 (LKPR-OMDB) Latest Departure : UAE135 (OMDB-LIPZ)


WX CaptureLIVE
Data provided by noaa.gov | Fetched at 22:32:32

METAR : OMDB 240300Z VRB02KT CAVOK 23/12 Q1011 NOSIG

TAF : OMDB 232300Z 2400/2506 VRB02KT CAVOK BECMG 2408/2410 34010KT BECMG 2415/2417 08005KT


Runway Data for OMDB
Data provided by openaviationdata.com

Runway ID Mag Var Hdg Length Elevation Surface ILS Freq ILS Id ILS Slope
12L 1 119° 13143 ft 34 ft Asphalt 110.1 IDBL 3
12R 1 119° 14606 ft 34 ft Asphalt 109.5 IDBE 3
30L 1 299° 14606 ft 34 ft Asphalt 111.3 IDBW 3
30R 1 299° 13143 ft 34 ft Asphalt 110.9 IDBR 3

Dubai International Airport, United Arab Emirates
Use only for reference purposes



Not for navigational purposes.